Weather reports worldwide

Advertisment
Cardiff, Bute Park, United Kingdom (99160): temperature & dewpoint: 12.10.2018 13:00:00 - 18.10.2018 13:00:00 (BST)Cardiff, Bute Park, United Kingdom (99160): temperature -20cm & temperature -100cm: 12.10.2018 13:00:00 - 18.10.2018 13:00:00 (BST)Cardiff, Bute Park, United Kingdom (99160): precipitation: 12.10.2018 13:00:00 - 18.10.2018 13:00:00 (BST)
Date & Time tt [°C] td [°C] tt -20cm [°C] tt -100cm [°C] rr [mm]
18.10.2018 13:00:00 14,5 8,1 - - 0,0
18.10.2018 12:00:00 13,4 7,3 - - 0,0
18.10.2018 11:00:00 12,3 5,7 - - 0,0
18.10.2018 10:00:00 11,9 5,3 14,2 14,5 0,0
18.10.2018 09:00:00 9,7 5,6 - - 0,0
18.10.2018 08:00:00 9,9 5,0 - - 0,0
18.10.2018 07:00:00 9,8 4,6 - - 0,0
18.10.2018 06:00:00 10,0 5,9 - - 0,0
18.10.2018 05:00:00 9,8 6,9 - - 0,0
18.10.2018 04:00:00 10,3 6,2 - - 0,0
18.10.2018 03:00:00 10,9 7,5 - - 0,0
18.10.2018 02:00:00 11,3 8,5 - - 0,0
18.10.2018 01:00:00 11,7 8,6 - - 0,0
18.10.2018 00:00:00 12,3 9,4 - - 0,0
17.10.2018 23:00:00 13,0 9,2 - - 0,0
17.10.2018 22:00:00 13,5 10,0 - - 0,0
17.10.2018 21:00:00 12,5 10,7 - - 0,0
17.10.2018 20:00:00 12,5 11,2 - - 0,0
17.10.2018 19:00:00 13,5 11,4 - - 0,0
17.10.2018 18:00:00 14,7 11,4 - - 0,0
17.10.2018 17:00:00 15,8 10,4 - - 0,0
17.10.2018 16:00:00 16,5 10,7 - - 0,0
17.10.2018 15:00:00 16,2 10,4 - - 0,0
17.10.2018 14:00:00 16,0 10,4 - - 0,0
17.10.2018 13:00:00 16,1 10,6 - - 0,0
17.10.2018 12:00:00 15,2 10,8 - - 0,0
17.10.2018 11:00:00 14,4 11,5 - - 0,0
17.10.2018 10:00:00 12,8 12,7 14,0 14,5 0,0
17.10.2018 09:00:00 12,0 11,9 - - 0,0
17.10.2018 08:00:00 11,6 11,5 - - 0,0
17.10.2018 07:00:00 12,0 11,8 - - 0,0
17.10.2018 06:00:00 12,2 12,0 - - 0,0
17.10.2018 05:00:00 12,2 12,0 - - 0,0
17.10.2018 04:00:00 12,5 12,2 - - 0,2
17.10.2018 03:00:00 12,7 12,3 - - 0,4
17.10.2018 02:00:00 12,5 12,2 - - 0,0
17.10.2018 01:00:00 12,0 11,7 - - 0,0
17.10.2018 00:00:00 11,9 11,6 - - 0,0
16.10.2018 23:00:00 11,2 11,1 - - 0,0
16.10.2018 22:00:00 10,7 10,6 - - 0,0
16.10.2018 21:00:00 9,8 9,4 - - 0,0
16.10.2018 20:00:00 10,3 9,6 - - 0,0
16.10.2018 19:00:00 11,6 9,8 - - 0,0
16.10.2018 18:00:00 13,8 11,2 - - 0,0
16.10.2018 17:00:00 14,4 11,3 - - 0,0
16.10.2018 16:00:00 14,6 11,3 - - 0,0
16.10.2018 15:00:00 15,7 12,0 - - 0,0
16.10.2018 14:00:00 15,8 13,1 - - 0,0
16.10.2018 13:00:00 15,7 13,6 - - 0,0
16.10.2018 12:00:00 14,8 13,2 - - 0,0
16.10.2018 11:00:00 14,2 12,6 - - 0,0
16.10.2018 10:00:00 14,2 12,6 14,0 14,7 0,0
16.10.2018 09:00:00 13,2 12,4 - - 0,0
16.10.2018 08:00:00 12,4 11,9 - - 0,0
16.10.2018 07:00:00 12,2 11,8 - - 0,0
16.10.2018 06:00:00 12,0 11,6 - - 0,0
16.10.2018 05:00:00 12,0 11,5 - - 0,0
16.10.2018 04:00:00 11,9 11,4 - - 0,0
16.10.2018 03:00:00 11,7 11,2 - - 0,0
16.10.2018 02:00:00 11,5 11,0 - - 0,0
16.10.2018 01:00:00 11,4 10,9 - - 0,0
16.10.2018 00:00:00 11,5 10,7 - - 0,0
15.10.2018 23:00:00 11,6 10,6 - - 0,0
15.10.2018 22:00:00 11,6 10,4 - - 0,0
15.10.2018 21:00:00 11,4 10,4 - - 0,0
15.10.2018 20:00:00 11,3 10,3 - - 0,0
15.10.2018 19:00:00 11,2 10,3 - - 0,2
15.10.2018 18:00:00 11,2 10,1 - - 0,0
15.10.2018 17:00:00 11,3 10,1 - - 0,0
15.10.2018 16:00:00 11,6 9,9 - - 0,0
15.10.2018 15:00:00 12,1 9,7 - - 0,0
15.10.2018 14:00:00 12,2 9,6 - - 0,0
15.10.2018 13:00:00 11,8 9,2 - - 0,0
15.10.2018 12:00:00 11,2 8,9 - - 0,0
15.10.2018 11:00:00 10,9 8,9 - - 0,0
15.10.2018 10:00:00 10,0 8,9 14,2 14,7 0,4
15.10.2018 09:00:00 9,9 8,7 - - 0,0
15.10.2018 08:00:00 10,1 8,6 - - 0,2
15.10.2018 07:00:00 9,6 8,5 - - 0,4
15.10.2018 06:00:00 10,4 7,7 - - 0,0
15.10.2018 05:00:00 10,3 7,7 - - 0,0
15.10.2018 04:00:00 9,9 7,5 - - 0,0
15.10.2018 03:00:00 10,1 7,1 - - 0,0
15.10.2018 02:00:00 10,1 7,0 - - 0,0
15.10.2018 01:00:00 10,2 7,0 - - 0,0
15.10.2018 00:00:00 10,2 6,8 - - 0,0
14.10.2018 23:00:00 10,3 6,6 - - 0,0
14.10.2018 22:00:00 10,4 7,3 - - 0,0
14.10.2018 21:00:00 10,6 7,8 - - 0,0
14.10.2018 20:00:00 10,9 7,8 - - 0,0
14.10.2018 19:00:00 10,9 8,0 - - 0,0
14.10.2018 18:00:00 11,6 7,9 - - 0,0
14.10.2018 17:00:00 12,1 8,0 - - 0,0
14.10.2018 16:00:00 11,9 7,7 - - 0,0
14.10.2018 15:00:00 11,4 8,5 - - 0,0
14.10.2018 14:00:00 11,6 8,7 - - 0,0
14.10.2018 13:00:00 10,8 9,0 - - 0,6
14.10.2018 12:00:00 10,5 8,9 - - 0,6
14.10.2018 11:00:00 10,9 10,3 - - 0,4
14.10.2018 10:00:00 10,5 10,2 15,0 14,5 3,2
14.10.2018 09:00:00 10,5 10,1 - - 2,8
14.10.2018 08:00:00 10,7 10,3 - - 1,6
14.10.2018 07:00:00 11,1 10,5 - - 2,2
14.10.2018 06:00:00 11,2 10,7 - - 0,8
14.10.2018 05:00:00 11,6 11,0 - - 1,0
14.10.2018 04:00:00 11,9 10,9 - - 1,6
14.10.2018 03:00:00 13,1 11,6 - - 0,4
14.10.2018 02:00:00 13,9 11,9 - - 0,2
14.10.2018 01:00:00 14,5 11,7 - - 0,0
14.10.2018 00:00:00 15,7 11,6 - - 0,0
13.10.2018 23:00:00 16,2 11,9 - - 0,0
13.10.2018 22:00:00 17,1 12,4 - - 0,0
13.10.2018 21:00:00 17,5 13,1 - - 0,0
13.10.2018 20:00:00 18,0 13,7 - - 0,0
13.10.2018 19:00:00 19,0 14,4 - - 0,0
13.10.2018 18:00:00 19,0 15,3 - - 0,0
13.10.2018 17:00:00 19,6 15,4 - - 0,0
13.10.2018 16:00:00 19,3 15,7 - - 0,0
13.10.2018 15:00:00 20,3 15,2 - - 0,0
13.10.2018 14:00:00 20,7 15,2 - - 0,0
13.10.2018 13:00:00 20,3 15,5 - - 0,0
13.10.2018 12:00:00 19,6 15,7 - - 0,0
13.10.2018 11:00:00 18,4 16,7 - - 0,4
13.10.2018 10:00:00 18,7 16,6 14,7 14,5 0,4
13.10.2018 09:00:00 17,7 16,9 - - 0,4
13.10.2018 08:00:00 17,8 16,8 - - 0,4
13.10.2018 07:00:00 18,1 16,9 - - 1,0
13.10.2018 06:00:00 18,4 16,7 - - 0,0
13.10.2018 05:00:00 18,3 16,9 - - 0,0
13.10.2018 04:00:00 18,5 16,8 - - 0,2
13.10.2018 03:00:00 18,5 16,8 - - 0,0
13.10.2018 02:00:00 18,3 16,6 - - 0,0
13.10.2018 01:00:00 18,8 16,7 - - 0,0
13.10.2018 00:00:00 18,5 16,6 - - 0,0
12.10.2018 23:00:00 18,6 16,4 - - 0,0
12.10.2018 22:00:00 18,3 16,6 - - 0,0
12.10.2018 21:00:00 17,8 16,3 - - 0,8
12.10.2018 20:00:00 17,4 16,0 - - 0,0
12.10.2018 19:00:00 17,5 15,9 - - 0,2
12.10.2018 18:00:00 17,1 16,0 - - 0,2
12.10.2018 17:00:00 17,3 15,9 - - 0,0
12.10.2018 16:00:00 18,0 15,5 - - 0,0
12.10.2018 15:00:00 18,2 15,0 - - 0,0
12.10.2018 14:00:00 17,7 14,7 - - 0,0
12.10.2018 13:00:00 17,4 14,3 - - 0,0

tt = temperature
td = dewpoint
tt -20cm = temperature -20cm
tt -100cm = temperature -100cm
rr = precipitation

Next stations